| time (UTC) | temp F | wind direction | speed MPH | gust MPH | rain 1hr in | rain 24hr in | rain mn in | humidity % | barometer mb |
| 20260509192212 | 62 | 80 | 7.0 | 16.0 | 0.00 | 0.00 | 0.00 | 71 | 1010.3 |
| 20260509191711 | 62 | 111 | 7.0 | 16.0 | 0.00 | 0.00 | 0.00 | 71 | 1010.1 |
| 20260509191214 | 62 | 66 | 8.0 | 15.0 | 0.00 | 0.00 | 0.00 | 69 | 1010.1 |
| 20260509190709 | 62 | 88 | 9.0 | 15.0 | 0.00 | 0.00 | 0.00 | 69 | 1010.1 |
| 20260509190216 | 62 | 59 | 9.0 | 16.0 | 0.00 | 0.00 | 0.00 | 68 | 1010.0 |
| 20260509185714 | 62 | 40 | 7.0 | 17.0 | 0.00 | 0.00 | 0.00 | 67 | 1010.0 |
| 20260509185219 | 62 | 57 | 9.0 | 17.0 | 0.00 | 0.00 | 0.00 | 66 | 1010.0 |
| 20260509184214 | 63 | 91 | 7.0 | 14.0 | 0.00 | 0.00 | 0.00 | 65 | 1010.0 |
| 20260509183709 | 63 | 102 | 7.0 | 17.0 | 0.00 | 0.00 | 0.00 | 64 | 1009.9 |
| 20260509183208 | 63 | 50 | 5.0 | 17.0 | 0.00 | 0.00 | 0.00 | 63 | 1010.0 |
| 20260509181716 | 64 | 67 | 5.0 | 10.0 | 0.00 | 0.00 | 0.00 | 59 | 1009.7 |
| 20260509181205 | 64 | 67 | 4.0 | 10.0 | 0.00 | 0.00 | 0.00 | 58 | 1009.8 |
| 20260509180715 | 64 | 16 | 6.0 | 12.0 | 0.00 | 0.00 | 0.00 | 59 | 1009.8 |
| 20260509180217 | 64 | 75 | 5.0 | 16.0 | 0.00 | 0.00 | 0.00 | 58 | 1009.9 |
| 20260509175709 | 64 | 43 | 6.0 | 16.0 | 0.00 | 0.00 | 0.00 | 58 | 1009.9 |
| 20260509175209 | 64 | 74 | 7.0 | 16.0 | 0.00 | 0.00 | 0.00 | 58 | 1010.0 |
| 20260509174708 | 64 | 46 | 6.0 | 14.0 | 0.00 | 0.00 | 0.00 | 58 | 1010.0 |
| 20260509174218 | 64 | 56 | 7.0 | 14.0 | 0.00 | 0.00 | 0.00 | 59 | 1009.9 |
| 20260509173719 | 64 | 39 | 7.0 | 12.0 | 0.00 | 0.00 | 0.00 | 58 | 1010.0 |
| 20260509173216 | 64 | 71 | 5.0 | 12.0 | 0.00 | 0.00 | 0.00 | 58 | 1010.0 |
| 20260509172217 | 65 | 57 | 4.0 | 13.0 | 0.00 | 0.00 | 0.00 | 59 | 1009.9 |
| 20260509170705 | 64 | 77 | 3.0 | 10.0 | 0.00 | 0.00 | 0.00 | 61 | 1009.9 |
| 20260509170219 | 65 | 40 | 6.0 | 10.0 | 0.00 | 0.00 | 0.00 | 63 | 1010.0 |
| 20260509165716 | 64 | 73 | 6.0 | 12.0 | 0.00 | 0.00 | 0.00 | 63 | 1010.0 |
| 20260509165211 | 64 | 74 | 6.0 | 13.0 | 0.00 | 0.00 | 0.00 | 63 | 1009.9 |
| 20260509164708 | 65 | 45 | 7.0 | 13.0 | 0.00 | 0.00 | 0.00 | 63 | 1009.9 |
| 20260509164206 | 65 | 106 | 6.0 | 14.0 | 0.00 | 0.00 | 0.00 | 63 | 1009.9 |
| 20260509163212 | 65 | 49 | 9.0 | 15.0 | 0.00 | 0.00 | 0.00 | 62 | 1009.9 |
| 20260509162714 | 65 | 45 | 8.0 | 12.0 | 0.00 | 0.00 | 0.00 | 62 | 1009.8 |
| 20260509162210 | 65 | 32 | 7.0 | 12.0 | 0.00 | 0.00 | 0.00 | 61 | 1009.9 |
| 20260509161708 | 65 | 46 | 5.0 | 17.0 | 0.00 | 0.00 | 0.00 | 62 | 1009.8 |
| 20260509161229 | 65 | 97 | 6.0 | 17.0 | 0.00 | 0.00 | 0.00 | 63 | 1009.6 |
| 20260509160214 | 65 | 28 | 7.0 | 17.0 | 0.00 | 0.00 | 0.00 | 65 | 1009.5 |
| 20260509155715 | 65 | 53 | 8.0 | 17.0 | 0.00 | 0.00 | 0.00 | 66 | 1009.5 |
| 20260509155218 | 65 | 70 | 8.0 | 17.0 | 0.00 | 0.00 | 0.00 | 65 | 1009.5 |
| 20260509154713 | 65 | 47 | 9.0 | 14.0 | 0.00 | 0.00 | 0.00 | 65 | 1009.5 |
| 20260509154220 | 66 | 67 | 7.0 | 14.0 | 0.00 | 0.00 | 0.00 | 65 | 1009.7 |
| 20260509152211 | 66 | 78 | 5.0 | 14.0 | 0.00 | 0.00 | 0.00 | 66 | 1010.2 |
| 20260509151716 | 66 | 40 | 6.0 | 14.0 | 0.00 | 0.00 | 0.00 | 66 | 1010.3 |
| 20260509151213 | 66 | 54 | 7.0 | 14.0 | 0.00 | 0.00 | 0.00 | 67 | 1010.4 |
| 20260509150719 | 66 | 68 | 8.0 | 15.0 | 0.00 | 0.00 | 0.00 | 68 | 1010.4 |
| 20260509150219 | 66 | 60 | 7.0 | 15.0 | 0.00 | 0.00 | 0.00 | 67 | 1010.5 |
| 20260509145707 | 66 | 67 | 8.0 | 19.0 | 0.00 | 0.00 | 0.00 | 67 | 1010.5 |
| 20260509145211 | 66 | 90 | 6.0 | 19.0 | 0.00 | 0.00 | 0.00 | 67 | 1010.5 |
| 20260509144705 | 67 | 32 | 6.0 | 16.0 | 0.00 | 0.00 | 0.00 | 67 | 1010.6 |
| 20260509144210 | 67 | 133 | 7.0 | 15.0 | 0.00 | 0.00 | 0.00 | 66 | 1010.6 |
| 20260509143712 | 67 | 61 | 6.0 | 20.0 | 0.00 | 0.00 | 0.00 | 66 | 1010.6 |
| 20260509143211 | 67 | 70 | 8.0 | 20.0 | 0.00 | 0.00 | 0.00 | 67 | 1010.7 |
| 20260509142217 | 67 | 52 | 9.0 | 15.0 | 0.00 | 0.00 | 0.00 | 68 | 1010.8 |
| 20260509141719 | 66 | 77 | 9.0 | 19.0 | 0.00 | 0.00 | 0.00 | 68 | 1010.8 |
| 20260509141217 | 67 | 66 | 8.0 | 19.0 | 0.00 | 0.00 | 0.00 | 67 | 1010.9 |
| 20260509140714 | 67 | 84 | 9.0 | 17.0 | 0.00 | 0.00 | 0.00 | 67 | 1011.0 |
| 20260509140215 | 66 | 80 | 9.0 | 19.0 | 0.00 | 0.00 | 0.00 | 68 | 1011.0 |
| 20260509135707 | 66 | 52 | 9.0 | 19.0 | 0.00 | 0.00 | 0.00 | 67 | 1011.0 |
| 20260509135213 | 66 | 49 | 10.0 | 19.0 | 0.00 | 0.00 | 0.00 | 68 | 1011.0 |
| 20260509134213 | 66 | 49 | 9.0 | 16.0 | 0.00 | 0.00 | 0.00 | 67 | 1011.1 |
| 20260509133712 | 67 | 59 | 9.0 | 17.0 | 0.00 | 0.00 | 0.00 | 67 | 1011.2 |
| 20260509133216 | 67 | 73 | 9.0 | 18.0 | 0.00 | 0.00 | 0.00 | 67 | 1011.1 |
| 20260509132713 | 67 | 39 | 10.0 | 19.0 | 0.00 | 0.00 | 0.00 | 66 | 1011.3 |
| 20260509132218 | 67 | 28 | 9.0 | 22.0 | 0.00 | 0.00 | 0.00 | 66 | 1011.2 |
| 20260509131744 | 67 | 8 | 11.0 | 22.0 | 0.00 | 0.00 | 0.00 | 66 | 1011.2 |
| 20260509131238 | 67 | 28 | 11.0 | 22.0 | 0.00 | 0.00 | 0.00 | 66 | 1011.1 |
| 20260509130719 | 67 | 11 | 10.0 | 22.0 | 0.00 | 0.00 | 0.00 | 65 | 1011.3 |
| 20260509130206 | 67 | 71 | 8.0 | 22.0 | 0.00 | 0.00 | 0.00 | 64 | 1011.4 |
| 20260509125217 | 68 | 15 | 8.0 | 19.0 | 0.00 | 0.00 | 0.00 | 65 | 1011.5 |
| 20260509124713 | 68 | 68 | 7.0 | 19.0 | 0.00 | 0.00 | 0.00 | 64 | 1011.4 |
| 20260509124212 | 69 | 57 | 8.0 | 19.0 | 0.00 | 0.00 | 0.00 | 62 | 1011.5 |
| 20260509123705 | 69 | 61 | 10.0 | 23.0 | 0.00 | 0.00 | 0.00 | 62 | 1011.4 |
| 20260509123207 | 69 | 74 | 11.0 | 23.0 | 0.00 | 0.00 | 0.00 | 62 | 1011.4 |
| 20260509122206 | 69 | 67 | 11.0 | 20.0 | 0.00 | 0.00 | 0.00 | 61 | 1011.3 |
| 20260509121709 | 68 | 94 | 9.0 | 23.0 | 0.00 | 0.00 | 0.00 | 62 | 1011.4 |
| 20260509121241 | 69 | 75 | 10.0 | 25.0 | 0.00 | 0.00 | 0.00 | 60 | 1011.4 |
| 20260509120738 | 69 | 59 | 13.0 | 25.0 | 0.00 | 0.00 | 0.00 | 61 | 1011.3 |
| 20260509120215 | 68 | 60 | 12.0 | 18.0 | 0.00 | 0.00 | 0.00 | 62 | 1011.4 |
| 20260509115710 | 68 | 82 | 8.0 | 20.0 | 0.00 | 0.00 | 0.00 | 61 | 1011.4 |
| 20260509114707 | 69 | 64 | 13.0 | 21.0 | 0.00 | 0.00 | 0.00 | 62 | 1011.4 |
| 20260509113210 | 68 | 63 | 9.0 | 21.0 | 0.00 | 0.00 | 0.00 | 62 | 1012.0 |
| 20260509112717 | 68 | 56 | 12.0 | 18.0 | 0.00 | 0.00 | 0.00 | 62 | 1012.0 |
| 20260509112232 | 68 | 47 | 7.0 | 18.0 | 0.00 | 0.00 | 0.00 | 62 | 1012.0 |
| 20260509111206 | 69 | 57 | 7.0 | 18.0 | 0.00 | 0.00 | 0.00 | 63 | 1011.9 |
| 20260509110208 | 68 | 46 | 9.0 | 19.0 | 0.00 | 0.00 | 0.00 | 64 | 1012.1 |
| 20260509105710 | 68 | 97 | 10.0 | 19.0 | 0.00 | 0.00 | 0.00 | 64 | 1012.2 |
| 20260509104711 | 68 | 50 | 10.0 | 20.0 | 0.00 | 0.00 | 0.00 | 65 | 1012.2 |
| 20260509104207 | 68 | 29 | 11.0 | 17.0 | 0.00 | 0.00 | 0.00 | 65 | 1012.1 |
| 20260509103708 | 67 | 60 | 10.0 | 17.0 | 0.00 | 0.00 | 0.00 | 66 | 1012.1 |
| 20260509103217 | 67 | 87 | 9.0 | 20.0 | 0.00 | 0.00 | 0.00 | 67 | 1012.1 |
| 20260509102708 | 67 | 22 | 9.0 | 20.0 | 0.00 | 0.00 | 0.00 | 66 | 1012.1 |
| 20260509102217 | 67 | 59 | 11.0 | 20.0 | 0.00 | 0.00 | 0.00 | 67 | 1012.1 |
| 20260509101715 | 67 | 47 | 9.0 | 17.0 | 0.00 | 0.00 | 0.00 | 68 | 1012.1 |
| 20260509100713 | 67 | 74 | 10.0 | 15.0 | 0.00 | 0.00 | 0.00 | 68 | 1012.3 |
| 20260509100210 | 67 | 37 | 9.0 | 15.0 | 0.00 | 0.00 | 0.00 | 68 | 1012.2 |
| 20260509095711 | 67 | 70 | 9.0 | 15.0 | 0.00 | 0.00 | 0.00 | 67 | 1012.2 |
| 20260509095213 | 67 | 30 | 5.0 | 14.0 | 0.00 | 0.00 | 0.00 | 68 | 1012.2 |
| 20260509094719 | 67 | 73 | 6.0 | 14.0 | 0.00 | 0.00 | 0.00 | 67 | 1012.3 |
| 20260509094216 | 67 | 77 | 7.0 | 16.0 | 0.00 | 0.00 | 0.00 | 68 | 1012.3 |
| 20260509093710 | 67 | 57 | 7.0 | 16.0 | 0.00 | 0.00 | 0.00 | 69 | 1012.1 |
| 20260509093218 | 66 | 112 | 6.0 | 16.0 | 0.00 | 0.00 | 0.00 | 68 | 1012.1 |
| 20260509092706 | 67 | 56 | 7.0 | 15.0 | 0.00 | 0.00 | 0.00 | 68 | 1012.2 |
| 20260509091710 | 67 | 37 | 7.0 | 17.0 | 0.00 | 0.00 | 0.00 | 68 | 1012.2 |
| 20260509090742 | 67 | 45 | 9.0 | 18.0 | 0.00 | 0.00 | 0.00 | 68 | 1012.1 |
| 20260509090217 | 67 | 23 | 10.0 | 17.0 | 0.00 | 0.00 | 0.00 | 69 | 1012.1 |
| 20260509085707 | 66 | 19 | 6.0 | 17.0 | 0.00 | 0.00 | 0.00 | 69 | 1012.0 |
| 20260509085218 | 66 | 40 | 8.0 | 17.0 | 0.00 | 0.00 | 0.00 | 68 | 1012.1 |
| 20260509084705 | 66 | 81 | 7.0 | 16.0 | 0.00 | 0.00 | 0.00 | 69 | 1012.0 |
| 20260509084227 | 66 | 73 | 6.0 | 16.0 | 0.00 | 0.00 | 0.00 | 68 | 1012.0 |
| 20260509083211 | 66 | 73 | 6.0 | 13.0 | 0.00 | 0.00 | 0.00 | 68 | 1012.3 |
| 20260509082704 | 65 | 46 | 7.0 | 16.0 | 0.00 | 0.00 | 0.00 | 69 | 1012.4 |
| 20260509082214 | 65 | 354 | 9.0 | 16.0 | 0.00 | 0.00 | 0.00 | 70 | 1012.4 |
| 20260509080716 | 65 | 46 | 9.0 | 20.0 | 0.00 | 0.00 | 0.00 | 71 | 1012.4 |
| 20260509080210 | 64 | 45 | 7.0 | 20.0 | 0.00 | 0.00 | 0.00 | 73 | 1012.5 |
| 20260509075715 | 64 | 45 | 8.0 | 16.0 | 0.00 | 0.00 | 0.00 | 73 | 1012.6 |
| 20260509074707 | 63 | 53 | 6.0 | 16.0 | 0.00 | 0.00 | 0.00 | 74 | 1012.9 |
| 20260509074217 | 63 | 29 | 6.0 | 16.0 | 0.00 | 0.00 | 0.00 | 75 | 1012.8 |
| 20260509073711 | 63 | 68 | 9.0 | 16.0 | 0.00 | 0.00 | 0.00 | 76 | 1012.8 |
| 20260509073218 | 63 | 43 | 7.0 | 15.0 | 0.00 | 0.00 | 0.00 | 77 | 1013.0 |
| 20260509072706 | 62 | 67 | 8.0 | 15.0 | 0.00 | 0.00 | 0.00 | 77 | 1013.1 |
| 20260509072210 | 62 | 56 | 6.0 | 15.0 | 0.00 | 0.00 | 0.00 | 78 | 1013.1 |
| 20260509071706 | 62 | 81 | 5.0 | 11.0 | 0.00 | 0.00 | 0.00 | 79 | 1013.1 |
| 20260509071211 | 61 | 122 | 5.0 | 11.0 | 0.00 | 0.00 | 0.00 | 80 | 1013.2 |
| 20260509070715 | 61 | 42 | 1.0 | 0.0 | 0.00 | 0.00 | 0.00 | 82 | 1013.2 |
| 20260509070210 | 59 | 0 | 0.0 | 0.0 | 0.00 | 0.00 | 0.00 | 85 | 1013.2 |
| 20260509065717 | 57 | 0 | 0.0 | 0.0 | 0.00 | 0.00 | 0.00 | 87 | 1013.2 |
| 20260509065217 | 57 | 0 | 0.0 | 0.0 | 0.00 | 0.00 | 0.00 | 88 | 1013.3 |
| 20260509064706 | 56 | 0 | 0.0 | 0.0 | 0.00 | 0.00 | 0.00 | 88 | 1013.3 |
| 20260509063719 | 55 | 0 | 0.0 | 0.0 | 0.00 | 0.00 | 0.00 | 89 | 1013.5 |
| 20260509063211 | 55 | 0 | 0.0 | 0.0 | 0.00 | 0.00 | 0.00 | 89 | 1013.5 |
| 20260509062718 | 54 | 0 | 0.0 | 0.0 | 0.00 | 0.00 | 0.00 | 89 | 1013.4 |
| 20260509062212 | 54 | 0 | 0.0 | 0.0 | 0.00 | 0.00 | 0.00 | 90 | 1013.4 |
| 20260509061711 | 54 | 0 | 0.0 | 0.0 | 0.00 | 0.00 | 0.00 | 90 | 1013.4 |
| 20260509055717 | 53 | 194 | 0.0 | 3.0 | 0.00 | 0.00 | 0.00 | 91 | 1013.3 |
| 20260509055216 | 52 | 225 | 1.0 | 6.0 | 0.00 | 0.00 | 0.00 | 91 | 1013.4 |
| 20260509054709 | 52 | 196 | 0.0 | 6.0 | 0.00 | 0.00 | 0.00 | 91 | 1013.3 |
| 20260509054219 | 52 | 191 | 2.0 | 6.0 | 0.00 | 0.00 | 0.00 | 91 | 1013.3 |
| 20260509053711 | 52 | 192 | 3.0 | 5.0 | 0.00 | 0.00 | 0.00 | 91 | 1013.3 |
| 20260509053209 | 52 | 181 | 3.0 | 5.0 | 0.00 | 0.00 | 0.00 | 91 | 1013.4 |
| 20260509052718 | 52 | 194 | 1.0 | 3.0 | 0.00 | 0.00 | 0.00 | 92 | 1013.3 |
| 20260509052211 | 51 | 201 | 2.0 | 2.0 | 0.00 | 0.00 | 0.00 | 92 | 1013.3 |
| 20260509051718 | 51 | 226 | 1.0 | 3.0 | 0.00 | 0.00 | 0.00 | 92 | 1013.2 |
| 20260509051205 | 51 | 194 | 1.0 | 4.0 | 0.00 | 0.00 | 0.00 | 92 | 1013.2 |
| 20260509050718 | 51 | 201 | 2.0 | 4.0 | 0.00 | 0.00 | 0.00 | 92 | 1013.3 |
| 20260509050219 | 51 | 208 | 2.0 | 5.0 | 0.00 | 0.00 | 0.00 | 92 | 1013.2 |
| 20260509045708 | 51 | 198 | 2.0 | 5.0 | 0.00 | 0.00 | 0.00 | 92 | 1013.2 |
| 20260509044207 | 51 | 213 | 1.0 | 4.0 | 0.00 | 0.00 | 0.00 | 92 | 1013.2 |
| 20260509043707 | 51 | 227 | 2.0 | 4.0 | 0.00 | 0.00 | 0.00 | 92 | 1013.1 |
| 20260509042708 | 51 | 239 | 1.0 | 4.0 | 0.00 | 0.00 | 0.00 | 92 | 1012.9 |
| 20260509042211 | 51 | 219 | 2.0 | 4.0 | 0.00 | 0.00 | 0.00 | 91 | 1012.9 |
| 20260509041717 | 51 | 188 | 2.0 | 4.0 | 0.00 | 0.00 | 0.00 | 92 | 1012.9 |
| 20260509041214 | 51 | 239 | 2.0 | 4.0 | 0.00 | 0.00 | 0.00 | 91 | 1013.0 |
| 20260509040719 | 51 | 246 | 2.0 | 4.0 | 0.00 | 0.00 | 0.00 | 91 | 1013.0 |
| 20260509040219 | 51 | 212 | 2.0 | 6.0 | 0.00 | 0.00 | 0.00 | 91 | 1012.9 |
| 20260509035716 | 51 | 208 | 2.0 | 6.0 | 0.00 | 0.00 | 0.00 | 91 | 1012.9 |
| 20260509034708 | 52 | 205 | 2.0 | 5.0 | 0.00 | 0.00 | 0.00 | 91 | 1012.8 |
| 20260509034217 | 52 | 206 | 3.0 | 5.0 | 0.00 | 0.00 | 0.00 | 91 | 1012.9 |
| 20260509033705 | 52 | 215 | 3.0 | 5.0 | 0.00 | 0.00 | 0.00 | 91 | 1013.0 |
| 20260509033206 | 52 | 232 | 1.0 | 4.0 | 0.00 | 0.00 | 0.00 | 91 | 1013.1 |
| 20260509032711 | 52 | 223 | 2.0 | 4.0 | 0.00 | 0.00 | 0.00 | 91 | 1012.9 |
| 20260509032210 | 52 | 234 | 2.0 | 3.0 | 0.00 | 0.00 | 0.00 | 91 | 1012.9 |
| 20260509031715 | 52 | 220 | 2.0 | 3.0 | 0.00 | 0.00 | 0.00 | 91 | 1013.1 |
| 20260509030712 | 52 | 243 | 0.0 | 3.0 | 0.00 | 0.00 | 0.00 | 91 | 1013.0 |
| 20260509030208 | 52 | 233 | 1.0 | 3.0 | 0.00 | 0.00 | 0.00 | 91 | 1012.9 |
| 20260509025706 | 52 | 232 | 2.0 | 2.0 | 0.00 | 0.00 | 0.00 | 91 | 1013.0 |
| 20260509025236 | 52 | 253 | 1.0 | 3.0 | 0.00 | 0.00 | 0.00 | 91 | 1012.9 |
| 20260509024219 | 52 | 237 | 2.0 | 3.0 | 0.00 | 0.00 | 0.00 | 91 | 1013.0 |
| 20260509023717 | 52 | 212 | 1.0 | 3.0 | 0.00 | 0.00 | 0.00 | 91 | 1013.0 |
| 20260509023209 | 53 | 209 | 0.0 | 2.0 | 0.00 | 0.00 | 0.00 | 91 | 1013.1 |
| 20260509022710 | 53 | 237 | 1.0 | 4.0 | 0.00 | 0.00 | 0.00 | 91 | 1013.2 |
| 20260509022218 | 53 | 244 | 1.0 | 4.0 | 0.00 | 0.00 | 0.00 | 90 | 1013.0 |
| 20260509021707 | 53 | 236 | 2.0 | 3.0 | 0.00 | 0.00 | 0.00 | 90 | 1013.0 |
| 20260509021219 | 53 | 220 | 2.0 | 5.0 | 0.00 | 0.00 | 0.00 | 90 | 1013.0 |
| 20260509020706 | 53 | 215 | 2.0 | 5.0 | 0.00 | 0.00 | 0.00 | 91 | 1013.1 |
| 20260509020207 | 53 | 239 | 2.0 | 4.0 | 0.00 | 0.00 | 0.00 | 91 | 1013.1 |
| 20260509015719 | 53 | 250 | 3.0 | 4.0 | 0.00 | 0.00 | 0.00 | 91 | 1013.2 |
| 20260509015210 | 53 | 240 | 1.0 | 2.0 | 0.00 | 0.00 | 0.00 | 90 | 1013.2 |
| 20260509014712 | 53 | 194 | 1.0 | 2.0 | 0.00 | 0.00 | 0.00 | 90 | 1013.2 |
| 20260509014208 | 53 | 213 | 0.0 | 2.0 | 0.00 | 0.00 | 0.00 | 90 | 1013.3 |
| 20260509013717 | 53 | 0 | 0.0 | 2.0 | 0.00 | 0.00 | 0.00 | 90 | 1013.2 |
| 20260509013216 | 53 | 170 | 0.0 | 1.0 | 0.00 | 0.00 | 0.00 | 90 | 1013.3 |
| 20260509012708 | 53 | 180 | 0.0 | 2.0 | 0.00 | 0.00 | 0.00 | 90 | 1013.3 |
| 20260509012232 | 53 | 168 | 0.0 | 3.0 | 0.00 | 0.00 | 0.00 | 90 | 1013.4 |
| 20260509011710 | 53 | 208 | 0.0 | 3.0 | 0.00 | 0.00 | 0.00 | 90 | 1013.4 |
| 20260509011207 | 53 | 164 | 1.0 | 3.0 | 0.00 | 0.00 | 0.00 | 90 | 1013.4 |
| 20260509010709 | 53 | 171 | 1.0 | 3.0 | 0.00 | 0.00 | 0.00 | 90 | 1013.4 |
| 20260509005718 | 54 | 172 | 1.0 | 3.0 | 0.00 | 0.00 | 0.00 | 90 | 1013.5 |
| 20260509005211 | 54 | 174 | 1.0 | 3.0 | 0.00 | 0.00 | 0.00 | 89 | 1013.5 |
| 20260509004711 | 54 | 143 | 1.0 | 4.0 | 0.00 | 0.00 | 0.00 | 89 | 1013.5 |
| 20260509004205 | 54 | 202 | 1.0 | 4.0 | 0.00 | 0.00 | 0.00 | 89 | 1013.5 |
| 20260509003716 | 54 | 175 | 0.0 | 4.0 | 0.00 | 0.00 | 0.00 | 89 | 1013.5 |
| 20260509003219 | 54 | 182 | 2.0 | 4.0 | 0.00 | 0.00 | 0.00 | 89 | 1013.3 |
| 20260509002716 | 55 | 223 | 0.0 | 3.0 | 0.00 | 0.00 | 0.00 | 88 | 1013.4 |
| 20260509001710 | 55 | 167 | 2.0 | 3.0 | 0.00 | 0.00 | 0.00 | 88 | 1013.3 |
| 20260509001206 | 55 | 150 | 2.0 | 3.0 | 0.00 | 0.00 | 0.00 | 88 | 1013.4 |
| 20260509000212 | 56 | 171 | 0.0 | 2.0 | 0.00 | 0.00 | 0.00 | 88 | 1013.4 |
| 20260508235705 | 56 | 163 | 1.0 | 3.0 | 0.00 | 0.00 | 0.00 | 88 | 1013.4 |
| 20260508235205 | 56 | 160 | 2.0 | 3.0 | 0.00 | 0.00 | 0.00 | 87 | 1013.4 |
| 20260508234713 | 56 | 136 | 0.0 | 0.0 | 0.00 | 0.00 | 0.00 | 87 | 1013.3 |
| 20260508234216 | 56 | 0 | 0.0 | 0.0 | 0.00 | 0.00 | 0.00 | 87 | 1013.4 |
| 20260508233713 | 57 | 0 | 0.0 | 0.0 | 0.00 | 0.00 | 0.00 | 88 | 1013.4 |
| 20260508233210 | 57 | 0 | 0.0 | 0.0 | 0.00 | 0.00 | 0.00 | 87 | 1013.4 |
| 20260508232713 | 57 | 0 | 0.0 | 0.0 | 0.00 | 0.00 | 0.00 | 87 | 1013.4 |
| 20260508232206 | 57 | 0 | 0.0 | 0.0 | 0.00 | 0.00 | 0.00 | 87 | 1013.5 |
| 20260508231736 | 57 | 0 | 0.0 | 0.0 | 0.00 | 0.00 | 0.00 | 87 | 1013.5 |
| 20260508231217 | 57 | 0 | 0.0 | 0.0 | 0.00 | 0.00 | 0.00 | 86 | 1013.5 |
| 20260508230705 | 57 | 0 | 0.0 | 0.0 | 0.00 | 0.00 | 0.00 | 86 | 1013.5 |
| 20260508230205 | 58 | 0 | 0.0 | 0.0 | 0.00 | 0.00 | 0.00 | 85 | 1013.5 |
| 20260508225706 | 58 | 0 | 0.0 | 0.0 | 0.00 | 0.00 | 0.00 | 85 | 1013.5 |
| 20260508225214 | 58 | 0 | 0.0 | 3.0 | 0.00 | 0.00 | 0.00 | 84 | 1013.6 |
| 20260508224715 | 58 | 0 | 0.0 | 3.0 | 0.00 | 0.00 | 0.00 | 84 | 1013.6 |
| 20260508224207 | 58 | 63 | 1.0 | 4.0 | 0.00 | 0.00 | 0.00 | 84 | 1013.6 |
| 20260508223712 | 59 | 26 | 0.0 | 4.0 | 0.00 | 0.00 | 0.00 | 84 | 1013.7 |
| 20260508223213 | 59 | 1 | 2.0 | 6.0 | 0.00 | 0.00 | 0.00 | 84 | 1013.6 |
| 20260508222710 | 59 | 1 | 2.0 | 6.0 | 0.00 | 0.00 | 0.00 | 84 | 1013.5 |
| 20260508222216 | 59 | 337 | 3.0 | 7.0 | 0.00 | 0.00 | 0.00 | 83 | 1013.5 |
| 20260508221717 | 59 | 5 | 3.0 | 7.0 | 0.00 | 0.00 | 0.00 | 83 | 1013.5 |
| 20260508221213 | 59 | 23 | 3.0 | 5.0 | 0.00 | 0.00 | 0.00 | 83 | 1013.5 |
| 20260508220717 | 59 | 28 | 3.0 | 7.0 | 0.00 | 0.00 | 0.00 | 82 | 1013.4 |
| 20260508220207 | 59 | 47 | 2.0 | 7.0 | 0.00 | 0.00 | 0.00 | 82 | 1013.3 |
| 20260508215714 | 59 | 73 | 5.0 | 7.0 | 0.00 | 0.00 | 0.00 | 82 | 1013.3 |
| 20260508215206 | 60 | 74 | 5.0 | 7.0 | 0.00 | 0.00 | 0.00 | 81 | 1013.2 |
| 20260508214708 | 60 | 21 | 3.0 | 8.0 | 0.00 | 0.00 | 0.00 | 81 | 1013.2 |
| 20260508213716 | 60 | 49 | 5.0 | 11.0 | 0.00 | 0.00 | 0.00 | 80 | 1013.0 |
| 20260508213211 | 60 | 67 | 6.0 | 11.0 | 0.00 | 0.00 | 0.00 | 80 | 1013.0 |
| 20260508212706 | 60 | 32 | 6.0 | 9.0 | 0.00 | 0.00 | 0.00 | 80 | 1012.9 |
| 20260508212214 | 60 | 49 | 5.0 | 11.0 | 0.00 | 0.00 | 0.00 | 80 | 1012.9 |
| 20260508211710 | 60 | 26 | 6.0 | 11.0 | 0.00 | 0.00 | 0.00 | 80 | 1013.1 |
| 20260508211209 | 60 | 12 | 6.0 | 10.0 | 0.00 | 0.00 | 0.00 | 80 | 1013.0 |
| 20260508210718 | 61 | 11 | 6.0 | 13.0 | 0.00 | 0.00 | 0.00 | 79 | 1013.1 |
| 20260508210207 | 61 | 19 | 6.0 | 13.0 | 0.00 | 0.00 | 0.00 | 79 | 1013.1 |
| 20260508204711 | 61 | 2 | 6.0 | 11.0 | 0.00 | 0.00 | 0.00 | 79 | 1013.1 |
| 20260508204217 | 61 | 12 | 6.0 | 11.0 | 0.00 | 0.00 | 0.00 | 79 | 1013.1 |
| 20260508203708 | 61 | 26 | 7.0 | 11.0 | 0.00 | 0.00 | 0.00 | 78 | 1013.0 |
| 20260508203212 | 61 | 347 | 5.0 | 12.0 | 0.00 | 0.00 | 0.00 | 78 | 1013.0 |
| 20260508202718 | 62 | 29 | 6.0 | 12.0 | 0.00 | 0.00 | 0.00 | 78 | 1013.0 |
| 20260508202207 | 62 | 42 | 7.0 | 12.0 | 0.00 | 0.00 | 0.00 | 78 | 1012.9 |
| 20260508201708 | 62 | 14 | 6.0 | 12.0 | 0.00 | 0.00 | 0.00 | 78 | 1012.9 |
| 20260508201206 | 62 | 37 | 6.0 | 11.0 | 0.00 | 0.00 | 0.00 | 78 | 1012.8 |
| 20260508200704 | 62 | 18 | 7.0 | 13.0 | 0.00 | 0.00 | 0.00 | 78 | 1012.7 |
| 20260508200209 | 62 | 5 | 7.0 | 13.0 | 0.00 | 0.00 | 0.00 | 78 | 1012.7 |
| 20260508195708 | 62 | 29 | 8.0 | 14.0 | 0.00 | 0.00 | 0.00 | 78 | 1012.6 |
| 20260508194712 | 62 | 19 | 7.0 | 13.0 | 0.00 | 0.00 | 0.00 | 77 | 1012.4 |
| 20260508194213 | 62 | 25 | 8.0 | 13.0 | 0.00 | 0.00 | 0.00 | 77 | 1012.4 |
| 20260508193717 | 63 | 9 | 6.0 | 13.0 | 0.00 | 0.00 | 0.00 | 76 | 1012.4 |
| 20260508192707 | 63 | 12 | 6.0 | 12.0 | 0.00 | 0.00 | 0.00 | 75 | 1012.3 |